Location: Filler
(36.7551°N, 30.4456°E)
Time: 07:31:24
(UTC+00:00)

Alouette 2 Rocket - Pass Details

Date: 19 June 2024
Orbit: 502 x 2627 km, 79.8° (Epoch: 22 July)

Event Time Altitude Azimuth Distance (km) Brightness Sun altitude
Exits shadow 00:21:25 47° 172° (S) 849 3.9 -21.2°
Maximum altitude 00:22:34 75° 100° (E) 634 3.6 -21.0°
Drops below altitude 10° 00:26:18 10° 15° (NNE) 1,781 6.9 -20.6°
Sets 00:28:13 0° 13° (NNE) 2,620 8.0 -20.4°
